CW9803 Weather Reports


time (UTC)temp
C
wind
direction
speed
KPH
gust
KPH
rain 1hr
cm
rain 24hr
cm
rain mn
cm
humidity
%
barometer
mb
20260904171514 10 122 0.0 0.0 0.00 0.00 0.00 79 1012.7
20260904171010 10 122 0.0 0.0 0.00 0.00 0.00 79 1012.7
20260904170505 10 104 0.0 0.0 0.00 0.00 0.00 81 1012.7
20260904170001 8 81 0.0 1.6 0.00 0.00 0.00 84 1012.4
20260904165459 8 110 0.0 0.0 0.00 0.00 0.00 85 1012.5
20260904164959 9 124 0.0 0.0 0.00 0.00 0.00 84 1012.4
20260904164453 9 104 0.0 0.0 0.00 0.00 0.00 84 1012.3
20260904163438 8 98 0.0 0.0 0.00 0.00 0.00 86 1012.2
20260904162938 8 98 0.0 0.0 0.00 0.00 0.00 86 1012.2
20260904162433 8 60 1.6 3.2 0.00 0.00 0.00 86 1012.3
20260904161928 9 138 0.0 1.6 0.00 0.00 0.00 88 1012.4
20260904161424 8 104 1.6 1.6 0.00 0.00 0.00 91 1012.1
20260904160920 7 242 3.2 3.2 0.00 0.00 0.00 93 1012.0
20260904160414 7 134 1.6 3.2 0.00 0.00 0.00 96 1012.4
20260904155909 7 144 1.6 1.6 0.00 0.00 0.00 97 1012.2
20260904155404 7 200 1.6 3.2 0.00 0.00 0.00 98 1012.0
20260904154903 7 80 0.0 1.6 0.00 0.00 0.00 99 1012.0
20260904154357 7 177 1.6 3.2 0.00 0.00 0.00 99 1012.2
20260904153853 7 87 3.2 3.2 0.00 0.00 0.00 99 1012.1
20260904153348 7 17 1.6 4.8 0.00 0.00 0.00 99 1012.0
20260904152845 6 64 1.6 1.6 0.00 0.00 0.00 99 1012.1
20260904152344 6 125 3.2 3.2 0.00 0.00 0.00 99 1012.1
20260904151838 6 201 3.2 3.2 0.00 0.00 0.00 99 1012.1
20260904151338 6 58 4.8 4.8 0.00 0.00 0.00 99 1012.0
20260904150834 6 305 3.2 3.2 0.00 0.00 0.00 99 1011.9
20260904150329 6 131 0.0 0.0 0.00 0.00 0.00 99 1011.9
20260904145826 6 102 1.6 3.2 0.00 0.00 0.00 99 1011.9
20260904145323 6 95 1.6 1.6 0.00 0.00 0.00 99 1012.1
20260904144819 6 44 3.2 3.2 0.00 0.00 0.00 99 1011.9
20260904144314 6 111 1.6 1.6 0.00 0.00 0.00 99 1011.9
20260904143809 6 134 0.0 1.6 0.00 0.00 0.00 99 1011.9
20260904143306 6 98 0.0 0.0 0.00 0.00 0.00 99 1011.8
20260904142802 5 128 0.0 1.6 0.00 0.00 0.00 99 1012.1
20260904142257 6 94 1.6 1.6 0.00 0.00 0.00 99 1011.9
20260904141752 6 71 1.6 1.6 0.00 0.00 0.00 99 1011.8
20260904141248 6 139 0.0 0.0 0.00 0.00 0.00 99 1011.4
20260904140743 6 114 0.0 0.0 0.00 0.00 0.00 99 1011.4
20260904140238 6 144 0.0 0.0 0.00 0.00 0.00 99 1011.6
20260904135737 5 91 0.0 0.0 0.00 0.00 0.00 99 1011.4
20260904135232 6 120 0.0 0.0 0.00 0.00 0.00 99 1011.0
20260904134729 5 117 0.0 0.0 0.00 0.00 0.00 99 1011.2
20260904134228 6 107 0.0 0.0 0.00 0.00 0.00 99 1011.1
20260904133722 5 109 1.6 1.6 0.00 0.00 0.00 99 1010.9
20260904133220 6 65 3.2 3.2 0.00 0.00 0.00 99 1011.0
20260904132718 6 121 0.0 0.0 0.00 0.00 0.00 99 1011.0
20260904132214 5 118 0.0 0.0 0.00 0.00 0.00 99 1010.8
20260904131713 6 121 0.0 0.0 0.00 0.00 0.00 99 1010.9
20260904131209 5 101 1.6 1.6 0.00 0.00 0.00 99 1010.7
20260904130703 5 119 0.0 0.0 0.00 0.00 0.00 99 1010.6
20260904130202 5 122 0.0 0.0 0.00 0.00 0.00 99 1010.8
20260904125659 5 120 0.0 0.0 0.00 0.00 0.00 99 1010.7
20260904125154 5 118 0.0 0.0 0.00 0.00 0.00 99 1010.5
20260904124649 5 117 1.6 1.6 0.00 0.00 0.00 99 1010.5
20260904124145 5 108 0.0 0.0 0.00 0.00 0.00 99 1010.6
20260904123644 5 94 0.0 1.6 0.00 0.00 0.00 99 1010.3
20260904123140 6 70 0.0 1.6 0.00 0.00 0.00 99 1010.3
20260904122635 6 117 0.0 0.0 0.00 0.00 0.00 99 1010.6
20260904122130 6 124 0.0 0.0 0.00 0.00 0.00 99 1010.4
20260904121625 6 106 0.0 1.6 0.00 0.00 0.00 99 1010.3
20260904121121 6 77 0.0 0.0 0.00 0.00 0.00 99 1010.0
20260904120617 6 130 0.0 0.0 0.00 0.00 0.00 99 1010.3
20260904120113 6 154 0.0 0.0 0.00 0.00 0.00 99 1010.3
20260904115608 6 117 0.0 0.0 0.00 0.00 0.00 99 1010.0
20260904115103 6 110 0.0 1.6 0.00 0.00 0.00 99 1010.0
20260904114602 6 111 0.0 0.0 0.00 0.00 0.00 99 1010.3
20260904114057 6 119 0.0 0.0 0.00 0.00 0.00 99 1010.1
20260904113556 6 119 0.0 0.0 0.00 0.00 0.00 99 1009.9
20260904113051 6 119 0.0 0.0 0.00 0.00 0.00 99 1009.8
20260904112546 6 119 0.0 0.0 0.00 0.00 0.00 99 1009.8
20260904112042 6 117 0.0 0.0 0.00 0.00 0.00 99 1009.8
20260904111537 5 125 0.0 0.0 0.00 0.00 0.00 99 1009.7
20260904111032 6 143 0.0 0.0 0.00 0.00 0.00 99 1009.8
20260904110526 6 143 0.0 0.0 0.00 0.00 0.00 99 1009.8
20260904110022 6 139 0.0 0.0 0.00 0.00 0.00 99 1009.8
20260904105516 5 115 0.0 0.0 0.00 0.00 0.00 99 1010.0
20260904105012 5 120 0.0 0.0 0.00 0.00 0.00 99 1009.8
20260904104507 5 120 0.0 0.0 0.00 0.00 0.00 99 1009.8
20260904104003 5 156 0.0 0.0 0.00 0.00 0.00 99 1010.1
20260904103458 5 157 0.0 0.0 0.00 0.00 0.00 99 1009.9
20260904102954 5 157 0.0 0.0 0.00 0.00 0.00 99 1009.8
20260904102449 5 157 0.0 0.0 0.00 0.00 0.00 99 1009.7
20260904101944 5 151 0.0 0.0 0.00 0.00 0.00 99 1009.7
20260904101441 5 151 1.6 1.6 0.00 0.00 0.00 99 1009.6
20260904100931 5 129 0.0 0.0 0.00 0.00 0.00 99 1009.4
20260904100426 5 119 0.0 0.0 0.00 0.00 0.00 99 1009.7
20260904095921 5 119 0.0 0.0 0.00 0.00 0.00 99 1009.5
20260904095416 5 117 0.0 0.0 0.00 0.00 0.00 99 1009.5
20260904094911 5 109 0.0 0.0 0.00 0.00 0.00 99 1009.3
20260904094406 5 114 0.0 0.0 0.00 0.00 0.00 99 1009.4
20260904093902 5 150 0.0 0.0 0.00 0.00 0.00 99 1009.3
20260904093402 5 148 0.0 0.0 0.00 0.00 0.00 99 1009.3
20260904092857 5 147 0.0 0.0 0.00 0.00 0.00 99 1009.3
20260904092353 5 140 0.0 0.0 0.00 0.00 0.00 99 1009.6
20260904091849 6 134 0.0 0.0 0.00 0.00 0.00 99 1009.3
20260904091344 6 163 3.2 3.2 0.00 0.00 0.00 99 1009.3
20260904090839 6 103 0.0 0.0 0.00 0.00 0.00 99 1009.3
20260904090336 6 103 0.0 0.0 0.00 0.00 0.00 99 1009.3
20260904085830 6 103 0.0 0.0 0.00 0.00 0.00 99 1009.0
20260904085325 6 101 0.0 0.0 0.00 0.00 0.00 99 1008.8
20260904084820 6 116 0.0 0.0 0.00 0.00 0.00 99 1009.2
20260904084316 6 116 0.0 0.0 0.00 0.00 0.00 99 1009.0
20260904083812 6 115 0.0 0.0 0.00 0.00 0.00 99 1008.7
20260904083308 6 115 0.0 0.0 0.00 0.00 0.00 99 1009.0
20260904082803 7 106 0.0 0.0 0.00 0.00 0.00 99 1008.7
20260904082258 7 113 0.0 0.0 0.00 0.00 0.00 99 1008.7
20260904081753 7 123 0.0 0.0 0.00 0.00 0.00 99 1008.7
20260904081249 7 126 0.0 0.0 0.00 0.00 0.00 99 1008.7
20260904080744 7 126 0.0 0.0 0.00 0.00 0.00 99 1008.6
20260904080239 7 126 0.0 0.0 0.00 0.00 0.00 99 1008.7
20260904075736 7 125 0.0 0.0 0.00 0.00 0.00 99 1008.7
20260904075231 7 114 0.0 0.0 0.00 0.00 0.00 99 1008.6
20260904074730 7 152 0.0 0.0 0.00 0.00 0.00 99 1009.2
20260904074224 7 139 0.0 0.0 0.00 0.00 0.00 99 1008.8
20260904073720 7 146 0.0 0.0 0.00 0.00 0.00 99 1009.1
20260904073216 7 147 0.0 0.0 0.00 0.00 0.00 99 1008.8
20260904072711 7 174 1.6 3.2 0.00 0.00 0.00 99 1009.1
20260904072206 7 150 0.0 0.0 0.00 0.00 0.00 99 1009.1
20260904071702 7 148 0.0 1.6 0.00 0.00 0.00 99 1009.0
20260904071157 7 155 3.2 4.8 0.00 0.00 0.00 99 1009.1
20260904070656 7 153 3.2 3.2 0.00 0.00 0.00 99 1008.8
20260904070155 7 154 1.6 1.6 0.00 0.00 0.00 99 1009.1
20260904065650 7 170 3.2 3.2 0.00 1.19 1.19 99 1009.0
20260904065147 7 148 0.0 0.0 0.00 1.19 1.19 99 1008.8
20260904064642 7 114 0.0 0.0 0.00 1.19 1.19 99 1009.0
20260904064137 7 114 0.0 0.0 0.00 1.19 1.19 99 1009.0
20260904063633 7 114 0.0 0.0 0.00 1.19 1.19 99 1008.7
20260904063128 7 114 0.0 0.0 0.00 1.19 1.19 99 1008.6
20260904062624 7 114 0.0 0.0 0.00 1.19 1.19 99 1008.4
20260904062120 7 113 0.0 0.0 0.00 1.19 1.19 99 1008.5
20260904061615 7 120 0.0 0.0 0.00 1.19 1.19 99 1008.6
20260904061112 7 118 0.0 0.0 0.00 1.19 1.19 99 1008.3
20260904060608 7 120 0.0 0.0 0.00 1.19 1.19 99 1008.5
20260904060103 7 148 0.0 0.0 0.00 1.19 1.19 99 1008.5
20260904055558 7 148 0.0 0.0 0.00 1.19 1.19 98 1008.7
20260904055053 7 147 0.0 0.0 0.00 1.19 1.19 98 1008.7
20260904054549 7 142 0.0 0.0 0.00 1.19 1.19 98 1009.1
20260904054045 7 125 0.0 0.0 0.00 1.19 1.19 98 1008.8
20260904053544 7 125 0.0 0.0 0.00 1.19 1.19 98 1008.6
20260904053040 7 123 0.0 0.0 0.00 1.19 1.19 98 1008.6
20260904052536 7 120 0.0 0.0 0.00 1.19 1.19 97 1008.6
20260904052031 8 130 0.0 0.0 0.00 1.19 1.19 97 1008.6
20260904051528 8 144 0.0 0.0 0.13 1.19 1.19 97 1008.6
20260904051027 8 139 0.0 0.0 0.13 1.19 1.19 97 1008.6
20260904050523 7 138 0.0 0.0 0.00 1.17 1.17 97 1008.6
20260904050019 7 139 0.0 0.0 0.00 1.17 1.17 96 1008.7
20260904045514 8 143 0.0 0.0 0.00 1.17 1.17 96 1009.0
20260904045009 8 145 0.0 0.0 0.00 1.17 1.17 96 1009.2
20260904044504 8 146 0.0 0.0 0.18 1.17 1.17 96 1009.2
20260904044001 8 173 0.0 0.0 0.00 1.14 1.14 96 1009.3
20260904043457 8 154 3.2 3.2 0.13 1.14 1.14 96 1009.0
20260904042952 8 141 0.0 1.6 0.13 1.14 1.14 96 1009.2
20260904042448 8 135 0.0 0.0 0.18 1.12 1.12 95 1009.1
20260904041942 8 138 0.0 0.0 0.18 1.12 1.12 95 1009.3
20260904041434 8 138 0.0 0.0 0.13 1.09 1.09 95 1009.2
20260904040930 8 146 0.0 0.0 0.30 1.09 1.09 95 1009.3
20260904040429 8 141 0.0 0.0 0.48 1.07 1.07 95 1009.4
20260904035926 8 141 0.0 0.0 0.30 1.04 1.04 94 1009.3
20260904035421 8 141 0.0 0.0 0.30 1.02 1.02 94 1009.3
20260904034920 8 143 0.0 0.0 0.30 0.99 0.99 94 1009.0
20260904034416 8 144 0.0 0.0 0.36 0.97 0.97 94 1009.2
20260904033912 8 144 0.0 0.0 0.30 0.94 0.94 93 1009.3
20260904033408 8 166 0.0 0.0 0.30 0.91 0.91 94 1009.2
20260904032903 8 146 0.0 0.0 0.30 0.89 0.89 94 1009.4
20260904032358 8 259 3.2 3.2 0.13 0.86 0.86 94 1009.4
20260904031852 8 147 0.0 0.0 0.18 0.84 0.84 93 1009.3
20260904031348 8 146 0.0 0.0 0.30 0.84 0.84 93 1009.1
20260904030844 8 140 0.0 0.0 0.13 0.81 0.81 92 1009.2
20260904030339 8 140 0.0 0.0 0.18 0.79 0.79 92 1009.0
20260904025835 8 140 0.0 0.0 0.18 0.79 0.79 92 1009.1
20260904025330 8 140 0.0 0.0 0.13 0.76 0.76 91 1009.1
20260904024830 8 137 0.0 0.0 0.13 0.76 0.76 90 1009.0
20260904024325 8 142 0.0 0.0 0.18 0.74 0.74 91 1009.0
20260904023822 8 145 0.0 0.0 0.18 0.74 0.74 90 1008.7
20260904023318 8 163 6.4 6.4 0.13 0.71 0.71 90 1008.7
20260904022817 9 155 3.2 3.2 0.13 0.71 0.71 89 1009.0
20260904022314 9 165 1.6 1.6 0.18 0.69 0.69 88 1009.1
20260904021811 9 86 1.6 3.2 0.18 0.69 0.69 88 1008.8
20260904021310 9 105 1.6 1.6 0.13 0.66 0.66 88 1008.6
20260904020805 10 118 0.0 0.0 0.13 0.66 0.66 86 1008.7
20260904020301 10 83 1.6 1.6 0.18 0.64 0.64 84 1008.7
20260904015759 10 150 1.6 1.6 0.18 0.64 0.64 86 1008.5
20260904015254 10 166 1.6 1.6 0.18 0.61 0.61 84 1008.6
20260904014752 10 136 0.0 0.0 0.18 0.61 0.61 84 1008.5
20260904014248 10 147 0.0 0.0 0.00 0.58 0.58 84 1008.5
20260904013744 10 137 0.0 0.0 0.00 0.58 0.58 81 1008.4
20260904013240 10 129 0.0 0.0 0.13 0.58 0.58 78 1008.5
20260904012736 10 129 0.0 0.0 0.13 0.58 0.58 78 1008.5
20260904012235 10 147 0.0 0.0 0.13 0.58 0.58 78 1008.3
20260904011734 11 130 0.0 0.0 0.13 0.58 0.58 78 1008.3
20260904011230 11 144 1.6 1.6 0.00 0.56 0.56 78 1008.3
20260904010725 11 142 0.0 0.0 0.00 0.56 0.56 78 1008.2
20260904010221 11 146 0.0 1.6 0.00 0.56 0.56 76 1008.3
20260904005716 11 166 4.8 6.4 0.00 0.56 0.56 71 1008.3
20260904005212 12 153 3.2 4.8 0.00 0.56 0.56 71 1008.2
20260904004712 12 137 3.2 4.8 0.00 0.56 0.56 70 1008.2
20260904004208 12 171 4.8 4.8 0.00 0.56 0.56 70 1008.3
20260904003702 12 147 1.6 1.6 0.00 0.56 0.56 72 1008.2
20260904003158 12 166 6.4 9.7 0.00 0.56 0.56 71 1007.9
20260904002649 12 136 6.4 11.3 0.00 0.56 0.56 71 1008.0
20260904002143 12 136 4.8 4.8 0.00 0.56 0.56 72 1007.7
20260904001638 12 166 6.4 6.4 0.00 0.56 0.56 71 1007.7
20260904001137 12 186 6.4 6.4 0.00 0.56 0.56 70 1007.8
20260904000633 12 144 6.4 9.7 0.00 0.56 0.56 70 1007.8
20260904000129 12 151 3.2 3.2 0.00 0.56 0.56 70 1007.8
20260903235628 13 145 3.2 4.8 0.00 0.56 0.56 65 1007.9
20260903235124 13 165 4.8 6.4 0.00 0.56 0.56 60 1008.0
20260903234619 13 166 9.7 11.3 0.00 0.56 0.56 58 1008.0
20260903234115 13 200 22.5 24.1 0.00 0.56 0.56 59 1007.7
20260903233611 13 153 4.8 4.8 0.00 0.56 0.56 62 1007.8
20260903233106 13 176 8.0 12.9 0.00 0.56 0.56 63 1007.8
20260903232601 12 147 6.4 11.3 0.00 0.56 0.56 65 1007.8
20260903232057 13 164 6.4 11.3 0.00 0.56 0.56 68 1007.8
20260903231551 13 120 9.7 11.3 0.00 0.56 0.56 66 1007.5
20260903231045 13 106 4.8 9.7 0.00 0.56 0.56 64 1007.4
20260903230542 13 159 6.4 6.4 0.00 0.56 0.56 60 1007.8
20260903230040 15 162 4.8 4.8 0.00 0.56 0.56 59 1007.7
20260903225538 15 142 1.6 4.8 0.00 0.56 0.56 59 1007.8
20260903225034 15 169 3.2 3.2 0.00 0.56 0.56 68 1007.8
20260903224530 15 168 0.0 1.6 0.00 0.56 0.56 72 1008.0